Flag Weather past 2 weeks in Lahr, Baden-Württemberg, Germany

Now
36 °F

Fog.


Feels Like: 36 °F
Forecast: 37 / 46 °F
Wind: 1 mph from Southwest

Location: Lahr

Current Time: Nov 28, 2014 at 10:48:24 PM

Latest Report: Nov 28, 2014 at 10:00 PM


Visibility: 3 mi

Pressure: 29.89 "Hg

Humidity: 96%

Dew point: 35 °F

Location of LahrLocation

Historic Weather in Lahr — Graph

°F

Lahr temperature yesterday

Maximum temperature yesterday: 47 °F (at 3:00 PM)
Minimum temperature yesterday: 42 °F (at 3:00 AM)
Average temperature yesterday: 44 °F

Past Weeks' High & Low Weather Summary

 TemperatureHumidityPressure
High56 °F (Nov 24, 12:00 PM)100% (Nov 15, 2:00 AM)30.32 "Hg (Nov 15, 2:00 AM)
Low36 °F (Nov 20, 12:00 AM)65% (Nov 16, 2:00 PM)29.60 "Hg (Nov 15, 9:00 PM)
Average46 °F93%29.97 "Hg
* Reported Nov 13 9:00 PM — Nov 28 9:00 PM, Lahr, Weather by CustomWeather, © 2014

Note: Actual official high and low records may vary slightly from our data, if they occured in-between our weather recording intervals... More about our weather records

Advertising

Lahr weather history for previous 24 hours

 ConditionsComfort  
Time TempWeatherWind HumidityBarometerVisibility
9:00 PM
Nov 28
36 °FFog.1 mph96%29.87 "Hg3 mi
8:00 PM37 °FFog.2 mph93%29.85 "Hg3 mi
7:00 PM38 °FFog.3 mph90%29.83 "Hg3 mi
6:00 PM39 °FFog.5 mph89%29.81 "Hg4 mi
5:00 PM41 °FFog.5 mph87%29.80 "Hg4 mi
4:00 PM43 °FFog.5 mph84%29.78 "Hg4 mi
3:00 PM45 °FFog.2 mph85%29.77 "Hg4 mi
2:00 PM43 °FFog.5 mph92%29.78 "Hg4 mi
1:00 PM43 °FFog.5 mph93%29.78 "Hg4 mi
12:00 PM43 °FFog.5 mph92%29.79 "Hg4 mi
11:00 AM43 °FFog.2 mph94%29.81 "Hg2 mi
10:00 AM43 °FFog.3 mph97%29.81 "Hg2 mi
9:00 AM42 °FFog.90 mph98%29.80 "Hg2 mi
8:00 AM42 °FFog.3 mph100%29.80 "Hg1 mi
7:00 AM42 °FLow clouds.5 mph99%29.78 "Hg2 mi
6:00 AM43 °FDrizzle. Low clouds.3 mph99%29.78 "Hg2 mi
5:00 AM44 °FLow clouds.3 mph100%29.78 "Hg0 mi
4:00 AM44 °FLow clouds.2 mph100%29.79 "Hg0 mi
3:00 AM44 °FLow clouds.2 mph100%29.80 "Hg0 mi
2:00 AM45 °FLow clouds.1 mph100%29.80 "Hg0 mi
1:00 AM45 °FLow clouds.1 mph100%29.80 "Hg0 mi
12:00 AM45 °FLow clouds.1 mph100%29.81 "Hg1 mi
11:00 PM
Nov 27
45 °FFog.1 mph97%29.80 "Hg2 mi
10:00 PM45 °FFog.1 mph97%29.80 "Hg2 mi
Weather by CustomWeather, © 2014

See weather overviewHow to use our weather pages